sat.trackr.live / text

‹ back to catalog

STARLINK-4687

NORAD 53784 · 2022-111M

PAYLOAD ACTIVE UNKNOWN

§ Identity

Operator
Country
US
Launch date
2022-09-11
Launch site
AFETR
Launch vehicle
Mass (kg)
RCS (m²)

Purposes: comms

External: N2YO · Heavens-Above · Gunter

§ Orbital elements

Epoch: 2026-09-20T04:11:33.443232Z

Period
94.01 min
Inclination
53.1589°
Eccentricity
0.0001215
Mean motion
15.31704857 rev/d
Perigee alt
469.9 km
Apogee alt
471.6 km
Semi-major
6,848.9 km
B*
5.8444e-7
RAAN
107.2932°
Arg perigee
83.1104°
Mean anomaly
277.0036°
Rev number
22,324

§ Raw data

STARLINK-46871 53784U 22111M   26263.17469263 -.00000347  00000+0  58444-6 0  99962 53784  53.1589 107.2932 0001215  83.1104 277.0036 15.31704857223249

JSON: /api/v1/satellites/53784 · /tle

For live sub-satellite position, see the globe view (requires WebGL).

§ Visibility from observer

Set your observer location to see the next 7 days of passes ≥ 10°. The values pass through the URL so the page stays shareable.

No JS? Fill the form by hand. The geolocation button needs JavaScript.